#Datum;Uhrzeit;WR;Pac;DaySum;Status;WR;Pac;DaySum;Status;Pdc1;Udc;Temp;WR;Pac;DaySum;Status;Pdc1;Udc;Temp;WR;Pac;DaySum;Status;Pdc1;Udc;Temp;WR;Pac;DaySum;Status;Pdc1;Pdc2;Udc1;Udc2;Temp;WR;Pac;DaySum;Status;Pdc1;Pdc2;Udc1;Udc2;Temp;WR;Pac;DaySum;Status;Pdc1;Udc;Temp;WR;Pac;DaySum;Status;Pdc1;Udc;Temp;WR;Pac;DaySum;Status;Pdc1;Udc;Temp
09.03.20;23:55:00;1;319;13017;0;2;0;5948;0;0;0;0;3;0;3676;0;0;0;0;4;0;5089;0;0;0;0;5;0;11944;0;0;0;0;0;0;6;0;8933;0;0;0;0;0;0;7;0;6372;0;0;0;0;8;0;6340;0;0;0;0;9;0;3362;0;0;0;0
09.03.20;23:50:00;1;289;12991;0;2;0;5948;0;0;0;0;3;0;3676;0;0;0;0;4;0;5089;0;0;0;0;5;0;11944;0;0;0;0;0;0;6;0;8933;0;0;0;0;0;0;7;0;6372;0;0;0;0;8;0;6340;0;0;0;0;9;0;3362;0;0;0;0
09.03.20;23:45:00;1;289;12967;0;2;0;5948;0;0;0;0;3;0;3676;0;0;0;0;4;0;5089;0;0;0;0;5;0;11944;0;0;0;0;0;0;6;0;8933;0;0;0;0;0;0;7;0;6372;0;0;0;0;8;0;6340;0;0;0;0;9;0;3362;0;0;0;0
09.03.20;23:40:00;1;289;12943;0;2;0;5948;0;0;0;0;3;0;3676;0;0;0;0;4;0;5089;0;0;0;0;5;0;11944;0;0;0;0;0;0;6;0;8933;0;0;0;0;0;0;7;0;6372;0;0;0;0;8;0;6340;0;0;0;0;9;0;3362;0;0;0;0
09.03.20;23:35:00;1;288;12919;0;2;0;5948;0;0;0;0;3;0;3676;0;0;0;0;4;0;5089;0;0;0;0;5;0;11944;0;0;0;0;0;0;6;0;8933;0;0;0;0;0;0;7;0;6372;0;0;0;0;8;0;6340;0;0;0;0;9;0;3362;0;0;0;0
09.03.20;23:30:00;1;328;12895;0;2;0;5948;0;0;0;0;3;0;3676;0;0;0;0;4;0;5089;0;0;0;0;5;0;11944;0;0;0;0;0;0;6;0;8933;0;0;0;0;0;0;7;0;6372;0;0;0;0;8;0;6340;0;0;0;0;9;0;3362;0;0;0;0
09.03.20;23:25:00;1;327;12867;0;2;0;5948;0;0;0;0;3;0;3676;0;0;0;0;4;0;5089;0;0;0;0;5;0;11944;0;0;0;0;0;0;6;0;8933;0;0;0;0;0;0;7;0;6372;0;0;0;0;8;0;6340;0;0;0;0;9;0;3362;0;0;0;0
09.03.20;23:20:00;1;302;12840;0;2;0;5948;0;0;0;0;3;0;3676;0;0;0;0;4;0;5089;0;0;0;0;5;0;11944;0;0;0;0;0;0;6;0;8933;0;0;0;0;0;0;7;0;6372;0;0;0;0;8;0;6340;0;0;0;0;9;0;3362;0;0;0;0
09.03.20;23:15:00;1;287;12815;0;2;0;5948;0;0;0;0;3;0;3676;0;0;0;0;4;0;5089;0;0;0;0;5;0;11944;0;0;0;0;0;0;6;0;8933;0;0;0;0;0;0;7;0;6372;0;0;0;0;8;0;6340;0;0;0;0;9;0;3362;0;0;0;0
09.03.20;23:10:00;1;230;12794;0;2;0;5948;0;0;0;0;3;0;3676;0;0;0;0;4;0;5089;0;0;0;0;5;0;11944;0;0;0;0;0;0;6;0;8933;0;0;0;0;0;0;7;0;6372;0;0;0;0;8;0;6340;0;0;0;0;9;0;3362;0;0;0;0
09.03.20;23:05:00;1;240;12775;0;2;0;5948;0;0;0;0;3;0;3676;0;0;0;0;4;0;5089;0;0;0;0;5;0;11944;0;0;0;0;0;0;6;0;8933;0;0;0;0;0;0;7;0;6372;0;0;0;0;8;0;6340;0;0;0;0;9;0;3362;0;0;0;0
09.03.20;23:00:00;1;251;12754;0;2;0;5948;0;0;0;0;3;0;3676;0;0;0;0;4;0;5089;0;0;0;0;5;0;11944;0;0;0;0;0;0;6;0;8933;0;0;0;0;0;0;7;0;6372;0;0;0;0;8;0;6340;0;0;0;0;9;0;3362;0;0;0;0
09.03.20;22:55:00;1;277;12732;0;2;0;5948;0;0;0;0;3;0;3676;0;0;0;0;4;0;5089;0;0;0;0;5;0;11944;2;0;0;0;0;0;6;0;8933;2;0;0;0;0;0;7;0;6372;0;0;0;0;8;0;6340;0;0;0;0;9;0;3362;0;0;0;0
09.03.20;22:50:00;1;236;12708;0;2;0;5948;0;0;0;0;3;0;3676;0;0;0;0;4;0;5089;0;0;0;0;5;0;11944;2;0;0;0;0;0;6;0;8933;2;0;0;0;0;0;7;0;6372;0;0;0;0;8;0;6340;0;0;0;0;9;0;3362;0;0;0;0
09.03.20;22:45:00;1;268;12688;0;2;0;5948;0;0;0;0;3;0;3676;0;0;0;0;4;0;5089;0;0;0;0;5;0;11944;2;0;0;0;0;0;6;0;8933;2;0;0;0;0;0;7;0;6372;0;0;0;0;8;0;6340;0;0;0;0;9;0;3362;0;0;0;0
09.03.20;22:40:00;1;354;12665;0;2;0;5948;0;0;0;0;3;0;3676;0;0;0;0;4;0;5089;0;0;0;0;5;0;11944;2;0;0;0;0;0;6;0;8933;2;0;0;0;0;0;7;0;6372;0;0;0;0;8;0;6340;0;0;0;0;9;0;3362;0;0;0;0
09.03.20;22:35:00;1;389;12636;0;2;0;5948;0;0;0;0;3;0;3676;0;0;0;0;4;0;5089;0;0;0;0;5;0;11944;2;0;0;0;0;0;6;0;8933;2;0;0;0;0;0;7;0;6372;0;0;0;0;8;0;6340;0;0;0;0;9;0;3362;0;0;0;0
09.03.20;22:30:00;1;468;12603;0;2;0;5948;0;0;0;0;3;0;3676;0;0;0;0;4;0;5089;0;0;0;0;5;0;11944;2;0;0;0;0;0;6;0;8933;2;0;0;0;0;0;7;0;6372;0;0;0;0;8;0;6340;0;0;0;0;9;0;3362;0;0;0;0
09.03.20;22:25:00;1;493;12564;0;2;0;5948;0;0;0;0;3;0;3676;0;0;0;0;4;0;5089;0;0;0;0;5;0;11944;2;0;0;0;0;0;6;0;8933;2;0;0;0;0;0;7;0;6372;0;0;0;0;8;0;6340;0;0;0;0;9;0;3362;0;0;0;0
09.03.20;22:20:00;1;507;12522;0;2;0;5948;0;0;0;0;3;0;3676;0;0;0;0;4;0;5089;0;0;0;0;5;0;11944;2;0;0;0;0;0;6;0;8933;2;0;0;0;0;0;7;0;6372;0;0;0;0;8;0;6340;0;0;0;0;9;0;3362;0;0;0;0
09.03.20;22:15:00;1;492;12479;0;2;0;5948;0;0;0;0;3;0;3676;0;0;0;0;4;0;5089;0;0;0;0;5;0;11944;2;0;0;0;0;0;6;0;8933;2;0;0;0;0;0;7;0;6372;0;0;0;0;8;0;6340;0;0;0;0;9;0;3362;0;0;0;0
09.03.20;22:10:00;1;726;12438;0;2;0;5948;0;0;0;0;3;0;3676;0;0;0;0;4;0;5089;0;0;0;0;5;0;11944;2;0;0;0;0;0;6;0;8933;2;0;0;0;0;0;7;0;6372;0;0;0;0;8;0;6340;0;0;0;0;9;0;3362;0;0;0;0
09.03.20;22:05:00;1;1455;12367;0;2;0;5948;0;0;0;0;3;0;3676;0;0;0;0;4;0;5089;0;0;0;0;5;0;11944;2;0;0;0;0;0;6;0;8933;2;0;0;0;0;0;7;0;6372;0;0;0;0;8;0;6340;0;0;0;0;9;0;3362;0;0;0;0
09.03.20;22:00:00;1;612;12263;0;2;0;5948;0;0;0;0;3;0;3676;0;0;0;0;4;0;5089;0;0;0;0;5;0;11944;2;0;0;0;0;0;6;0;8933;2;0;0;0;0;0;7;0;6372;0;0;0;0;8;0;6340;0;0;0;0;9;0;3362;0;0;0;0
09.03.20;21:55:00;1;628;12212;0;2;0;5948;0;0;0;0;3;0;3676;0;0;0;0;4;0;5089;0;0;0;0;5;0;11944;2;0;0;0;0;0;6;0;8933;2;0;0;0;0;0;7;0;6372;0;0;0;0;8;0;6340;0;0;0;0;9;0;3362;0;0;0;0
09.03.20;21:50:00;1;687;12159;0;2;0;5948;0;0;0;0;3;0;3676;0;0;0;0;4;0;5089;0;0;0;0;5;0;11944;2;0;0;0;0;0;6;0;8933;2;0;0;0;0;0;7;0;6372;0;0;0;0;8;0;6340;0;0;0;0;9;0;3362;0;0;0;0
09.03.20;21:45:00;1;619;12102;0;2;0;5948;0;0;0;0;3;0;3676;0;0;0;0;4;0;5089;0;0;0;0;5;0;11944;2;0;0;0;0;0;6;0;8933;2;0;0;0;0;0;7;0;6372;0;0;0;0;8;0;6340;0;0;0;0;9;0;3362;0;0;0;0
09.03.20;21:40:00;1;589;12051;0;2;0;5948;0;0;0;0;3;0;3676;0;0;0;0;4;0;5089;0;0;0;0;5;0;11944;2;0;0;0;0;0;6;0;8933;2;0;0;0;0;0;7;0;6372;0;0;0;0;8;0;6340;0;0;0;0;9;0;3362;0;0;0;0
09.03.20;21:35:00;1;656;12002;0;2;0;5948;0;0;0;0;3;0;3676;0;0;0;0;4;0;5089;0;0;0;0;5;0;11944;2;0;0;0;0;0;6;0;8933;2;0;0;0;0;0;7;0;6372;0;0;0;0;8;0;6340;0;0;0;0;9;0;3362;0;0;0;0
09.03.20;21:30:00;1;693;11947;0;2;0;5948;0;0;0;0;3;0;3676;0;0;0;0;4;0;5089;0;0;0;0;5;0;11944;2;0;0;0;0;0;6;0;8933;2;0;0;0;0;0;7;0;6372;0;0;0;0;8;0;6340;0;0;0;0;9;0;3362;0;0;0;0
09.03.20;21:25:00;1;630;11889;0;2;0;5948;0;0;0;0;3;0;3676;0;0;0;0;4;0;5089;0;0;0;0;5;0;11944;2;0;0;0;0;0;6;0;8933;2;0;0;0;0;0;7;0;6372;0;0;0;0;8;0;6340;0;0;0;0;9;0;3362;0;0;0;0
09.03.20;21:20:00;1;679;11837;0;2;0;5948;0;0;0;0;3;0;3676;0;0;0;0;4;0;5089;0;0;0;0;5;0;11944;2;0;0;0;0;0;6;0;8933;2;0;0;0;0;0;7;0;6372;0;0;0;0;8;0;6340;0;0;0;0;9;0;3362;0;0;0;0
09.03.20;21:15:00;1;646;11780;0;2;0;5948;0;0;0;0;3;0;3676;0;0;0;0;4;0;5089;0;0;0;0;5;0;11944;2;0;0;0;0;0;6;0;8933;2;0;0;0;0;0;7;0;6372;0;0;0;0;8;0;6340;0;0;0;0;9;0;3362;0;0;0;0
09.03.20;21:10:00;1;626;11727;0;2;0;5948;0;0;0;0;3;0;3676;0;0;0;0;4;0;5089;0;0;0;0;5;0;11944;2;0;0;0;0;0;6;0;8933;2;0;0;0;0;0;7;0;6372;0;0;0;0;8;0;6340;0;0;0;0;9;0;3362;0;0;0;0
09.03.20;21:05:00;1;704;11674;0;2;0;5948;0;0;0;0;3;0;3676;0;0;0;0;4;0;5089;0;0;0;0;5;0;11944;2;0;0;0;0;0;6;0;8933;2;0;0;0;0;0;7;0;6372;0;0;0;0;8;0;6340;0;0;0;0;9;0;3362;0;0;0;0
09.03.20;21:00:00;1;686;11616;0;2;0;5948;0;0;0;0;3;0;3676;0;0;0;0;4;0;5089;0;0;0;0;5;0;11944;2;0;0;0;0;0;6;0;8933;2;0;0;0;0;0;7;0;6372;0;0;0;0;8;0;6340;0;0;0;0;9;0;3362;0;0;0;0
09.03.20;20:55:00;1;739;11559;0;2;0;5948;0;0;0;0;3;0;3676;0;0;0;0;4;0;5089;0;0;0;0;5;0;11944;2;0;0;0;0;0;6;0;8933;2;0;0;0;0;0;7;0;6372;0;0;0;0;8;0;6340;0;0;0;0;9;0;3362;0;0;0;0
09.03.20;20:50:00;1;716;11497;0;2;0;5948;0;0;0;0;3;0;3676;0;0;0;0;4;0;5089;0;0;0;0;5;0;11944;2;0;0;0;0;0;6;0;8933;2;0;0;0;0;0;7;0;6372;0;0;0;0;8;0;6340;0;0;0;0;9;0;3362;0;0;0;0
09.03.20;20:45:00;1;705;11438;0;2;0;5948;0;0;0;0;3;0;3676;0;0;0;0;4;0;5089;0;0;0;0;5;0;11944;2;0;0;0;0;0;6;0;8933;2;0;0;0;0;0;7;0;6372;0;0;0;0;8;0;6340;0;0;0;0;9;0;3362;0;0;0;0
09.03.20;20:40:00;1;649;11381;0;2;0;5948;0;0;0;0;3;0;3676;0;0;0;0;4;0;5089;0;0;0;0;5;0;11944;2;0;0;0;0;0;6;0;8933;2;0;0;0;0;0;7;0;6372;0;0;0;0;8;0;6340;0;0;0;0;9;0;3362;0;0;0;0
09.03.20;20:35:00;1;647;11327;0;2;0;5948;0;0;0;0;3;0;3676;0;0;0;0;4;0;5089;0;0;0;0;5;0;11944;2;0;0;0;0;0;6;0;8933;2;0;0;0;0;0;7;0;6372;0;0;0;0;8;0;6340;0;0;0;0;9;0;3362;0;0;0;0
09.03.20;20:30:00;1;675;11272;0;2;0;5948;0;0;0;0;3;0;3676;0;0;0;0;4;0;5089;0;0;0;0;5;0;11944;2;0;0;0;0;0;6;0;8933;2;0;0;0;0;0;7;0;6372;0;0;0;0;8;0;6340;0;0;0;0;9;0;3362;0;0;0;0
09.03.20;20:25:00;1;634;11215;0;2;0;5948;0;0;0;0;3;0;3676;0;0;0;0;4;0;5089;0;0;0;0;5;0;11944;2;0;0;0;0;0;6;0;8933;2;0;0;0;0;0;7;0;6372;0;0;0;0;8;0;6340;0;0;0;0;9;0;3362;0;0;0;0
09.03.20;20:20:00;1;673;11163;0;2;0;5948;0;0;0;0;3;0;3676;0;0;0;0;4;0;5089;0;0;0;0;5;0;11944;2;0;0;0;0;0;6;0;8933;2;0;0;0;0;0;7;0;6372;0;0;0;0;8;0;6340;0;0;0;0;9;0;3362;0;0;0;0
09.03.20;20:15:00;1;770;11106;0;2;0;5948;0;0;0;0;3;0;3676;0;0;0;0;4;0;5089;0;0;0;0;5;0;11944;2;0;0;0;0;0;6;0;8933;2;0;0;0;0;0;7;0;6372;0;0;0;0;8;0;6340;0;0;0;0;9;0;3362;0;0;0;0
09.03.20;20:10:00;1;1157;11038;0;2;0;5948;0;0;0;0;3;0;3676;0;0;0;0;4;0;5089;0;0;0;0;5;0;11944;2;0;0;0;0;0;6;0;8933;2;0;0;0;0;0;7;0;6372;0;0;0;0;8;0;6340;0;0;0;0;9;0;3362;0;0;0;0
09.03.20;20:05:00;1;1285;10946;0;2;0;5948;0;0;0;0;3;0;3676;0;0;0;0;4;0;5089;0;0;0;0;5;0;11944;2;0;0;0;0;0;6;0;8933;2;0;0;0;0;0;7;0;6372;0;0;0;0;8;0;6340;0;0;0;0;9;0;3362;0;0;0;0
09.03.20;20:00:00;1;1831;10796;0;2;0;5948;0;0;0;0;3;0;3676;0;0;0;0;4;0;5089;0;0;0;0;5;0;11944;2;0;0;0;0;0;6;0;8933;2;0;0;0;0;0;7;0;6372;0;0;0;0;8;0;6340;0;0;0;0;9;0;3362;0;0;0;0
09.03.20;19:55:00;1;1817;10643;0;2;0;5948;0;0;0;0;3;0;3676;0;0;0;0;4;0;5089;0;0;0;0;5;0;11944;2;0;0;0;0;0;6;0;8933;2;0;0;0;0;0;7;0;6372;0;0;0;0;8;0;6340;0;0;0;0;9;0;3362;0;0;0;0
09.03.20;19:50:00;1;1852;10491;0;2;0;5948;0;0;0;0;3;0;3676;0;0;0;0;4;0;5089;0;0;0;0;5;0;11944;2;0;0;0;0;0;6;0;8933;2;0;0;0;0;0;7;0;6372;0;0;0;0;8;0;6340;0;0;0;0;9;0;3362;0;0;0;0
09.03.20;19:45:00;1;1260;10337;0;2;0;5948;0;0;0;0;3;0;3676;0;0;0;0;4;0;5089;0;0;0;0;5;0;11944;2;0;0;0;0;0;6;0;8933;2;0;0;0;0;0;7;0;6372;0;0;0;0;8;0;6340;0;0;0;0;9;0;3362;0;0;0;0
09.03.20;19:40:00;1;1745;10249;0;2;0;5948;0;0;0;0;3;0;3676;0;0;0;0;4;0;5089;0;0;0;0;5;0;11944;2;0;0;0;0;0;6;0;8933;2;0;0;0;0;0;7;0;6372;0;0;0;0;8;0;6340;0;0;0;0;9;0;3362;0;0;0;0
09.03.20;19:35:00;1;701;10128;0;2;0;5948;0;0;0;0;3;0;3676;0;0;0;0;4;0;5089;0;0;0;0;5;0;11944;2;0;0;0;0;0;6;0;8933;2;0;0;0;0;0;7;0;6372;0;0;0;0;8;0;6340;0;0;0;0;9;0;3362;0;0;0;0
09.03.20;19:30:00;1;744;10069;0;2;0;5948;0;0;0;0;3;0;3676;0;0;0;0;4;0;5089;0;0;0;0;5;0;11944;2;0;0;0;0;0;6;0;8933;2;0;0;0;0;0;7;0;6372;0;0;0;0;8;0;6340;0;0;0;0;9;0;3362;0;0;0;0
09.03.20;19:25:00;1;1880;9996;0;2;0;5948;0;0;0;0;3;0;3676;0;0;0;0;4;0;5089;0;0;0;0;5;0;11944;2;0;0;0;0;0;6;0;8933;2;0;0;0;0;0;7;0;6372;0;0;0;0;8;0;6340;0;0;0;0;9;0;3362;0;0;0;0
09.03.20;19:20:00;1;1157;9839;0;2;0;5948;0;0;0;0;3;0;3676;0;0;0;0;4;0;5089;0;0;0;0;5;0;11944;2;0;0;0;0;0;6;0;8933;2;0;0;0;0;0;7;0;6372;0;0;0;0;8;0;6340;0;0;0;0;9;0;3362;0;0;0;0
09.03.20;19:15:00;1;695;9755;0;2;0;5948;0;0;0;0;3;0;3676;0;0;0;0;4;0;5089;0;0;0;0;5;0;11944;2;0;0;0;0;0;6;0;8933;2;0;0;0;0;0;7;0;6372;0;0;0;0;8;0;6340;0;0;0;0;9;0;3362;0;0;0;0
09.03.20;19:10:00;1;1542;9696;0;2;0;5948;0;0;0;0;3;0;3676;0;0;0;0;4;0;5089;0;0;0;0;5;0;11944;2;0;0;0;0;0;6;0;8933;2;0;0;0;0;0;7;0;6372;0;0;0;0;8;0;6340;0;0;0;0;9;0;3362;0;0;0;0
09.03.20;19:05:00;1;753;9579;0;2;0;5948;0;0;0;0;3;0;3676;0;0;0;0;4;0;5089;0;0;0;0;5;0;11944;2;0;0;0;0;0;6;0;8933;2;0;0;0;0;0;7;0;6372;0;0;0;0;8;0;6340;0;0;0;0;9;0;3362;0;0;0;0
09.03.20;19:00:00;1;725;9519;0;2;0;5948;0;0;0;0;3;0;3676;0;0;0;0;4;0;5089;0;0;0;0;5;0;11944;2;0;0;0;0;0;6;0;8933;2;0;0;0;0;0;7;0;6372;0;0;0;0;8;0;6340;0;0;0;0;9;0;3362;0;0;0;0
09.03.20;18:55:00;1;639;9458;0;2;0;5948;0;0;0;0;3;0;3676;0;0;0;0;4;0;5089;0;0;0;0;5;0;11944;2;0;0;0;0;0;6;0;8933;2;0;0;0;0;0;7;0;6372;0;0;0;0;8;0;6340;0;0;0;0;9;0;3362;0;0;0;0
09.03.20;18:50:00;1;919;9405;0;2;0;5948;0;0;0;0;3;0;3676;0;0;0;0;4;0;5089;0;0;0;0;5;0;11944;2;0;0;0;0;0;6;0;8933;2;0;0;0;0;0;7;0;6372;0;0;0;0;8;0;6340;0;0;0;0;9;0;3362;0;0;0;0
09.03.20;18:45:00;1;3348;9301;0;2;0;5948;0;0;0;0;3;0;3676;0;0;0;0;4;0;5089;0;0;0;0;5;0;11944;2;0;0;0;0;0;6;0;8933;2;0;0;0;0;0;7;0;6372;0;0;0;0;8;0;6340;0;0;0;0;9;0;3362;0;0;0;0
09.03.20;18:40:00;1;3754;9013;0;2;0;5948;0;0;0;0;3;0;3676;0;0;0;0;4;0;5089;0;0;0;0;5;0;11944;2;0;0;0;0;0;6;0;8933;2;0;0;0;0;0;7;0;6372;0;0;0;0;8;0;6340;0;0;0;0;9;0;3362;0;0;0;0
09.03.20;18:35:00;1;3547;8698;0;2;0;5948;0;0;0;0;3;0;3676;0;0;0;0;4;0;5089;0;0;0;0;5;0;11944;2;0;0;0;0;0;6;0;8933;2;0;0;0;0;0;7;0;6372;0;0;0;0;8;0;6340;0;0;0;0;9;0;3362;0;0;0;0
09.03.20;18:30:00;1;2526;8427;0;2;0;5948;0;0;0;0;3;0;3676;0;0;0;0;4;0;5089;0;0;0;0;5;0;11944;2;0;0;0;0;0;6;0;8933;2;0;0;0;0;0;7;0;6372;0;0;0;0;8;0;6340;0;0;0;0;9;0;3362;0;0;0;0
09.03.20;18:25:00;1;2667;8216;0;2;0;5948;0;0;177;9;3;0;3676;2;0;283;17;4;0;5089;0;0;0;0;5;0;11944;2;0;0;0;0;0;6;0;8933;2;0;0;0;0;0;7;0;6372;0;0;0;0;8;0;6340;0;0;0;0;9;0;3362;0;0;0;0
09.03.20;18:20:00;1;1701;8025;0;2;0;5948;6;0;310;14;3;0;3676;6;0;364;17;4;0;5089;2;0;78;13;5;0;11944;2;0;0;0;0;0;6;0;8933;2;0;0;0;0;1;7;0;6372;0;0;0;0;8;0;6340;0;0;0;0;9;0;3362;0;0;0;0
09.03.20;18:15:00;1;1710;7883;0;2;0;5948;6;0;354;14;3;0;3676;6;0;423;17;4;0;5089;1;0;125;13;5;0;11944;1;0;0;276;302;17;6;0;8933;2;4;3;327;183;16;7;0;6372;0;0;222;12;8;0;6340;0;0;220;12;9;0;3362;0;0;229;9
09.03.20;18:10:00;1;1832;7741;0;2;0;5948;6;0;392;14;3;1;3676;6;2;475;17;4;0;5089;1;0;199;13;5;0;11944;8;0;0;412;578;22;6;0;8933;23;5;4;306;429;21;7;0;6372;6;0;391;16;8;0;6340;6;0;394;16;9;0;3362;6;0;399;12
09.03.20;18:05:00;1;2701;7601;0;2;0;5948;6;0;403;15;3;1;3676;3;3;486;18;4;0;5089;1;0;211;14;5;8;11944;4;0;0;409;641;23;6;0;8933;23;3;2;256;568;22;7;0;6372;3;0;402;16;8;0;6340;4;0;418;16;9;0;3362;6;0;435;12
09.03.20;18:00:00;1;962;7390;0;2;0;5948;6;0;410;15;3;1;3676;6;4;499;18;4;0;5089;1;0;217;14;5;8;11943;4;0;1;411;646;23;6;0;8933;8;4;4;434;571;22;7;1;6372;6;1;432;17;8;1;6340;3;0;407;16;9;0;3362;6;0;449;12
09.03.20;17:55:00;1;1831;7320;0;2;0;5948;6;0;405;15;3;1;3676;6;4;490;18;4;0;5089;3;0;211;14;5;10;11943;4;0;0;413;652;23;6;0;8933;1;4;5;477;574;22;7;0;6372;6;1;334;13;8;1;6340;6;2;401;16;9;0;3362;6;0;447;12
09.03.20;17:50:00;1;1429;7164;0;2;0;5948;6;0;406;15;3;4;3676;6;10;459;18;4;0;5089;3;0;205;15;5;0;11942;1;0;1;429;680;23;6;0;8933;23;6;6;263;579;23;7;0;6372;6;2;424;17;8;0;6340;6;2;437;17;9;0;3362;6;0;498;13
09.03.20;17:45:00;1;2666;7031;0;2;0;5948;6;0;377;16;3;1;3675;6;3;447;18;4;0;5089;1;0;185;15;5;10;11941;4;1;2;395;596;24;6;0;8933;23;4;6;479;551;24;7;0;6372;6;0;388;17;8;0;6340;6;0;395;17;9;0;3362;3;1;403;13
09.03.20;17:40:00;1;2562;6820;0;2;6;5948;6;11;394;16;3;1;3675;6;3;493;18;4;5;5089;1;5;200;15;5;91;11940;4;25;23;379;605;25;6;58;8933;4;21;26;474;450;24;7;5;6372;4;9;434;18;8;0;6340;6;0;445;17;9;0;3362;6;3;392;10
09.03.20;17:35:00;1;380;6632;0;2;63;5948;4;93;369;17;3;3;3675;4;9;525;19;4;13;5088;3;14;198;16;5;174;11932;4;70;63;379;605;25;6;116;8928;4;54;67;474;451;24;7;64;6372;4;94;439;18;8;57;6340;4;97;420;17;9;11;3362;6;20;506;13
09.03.20;17:30:00;1;335;6599;0;2;144;5942;4;181;358;17;3;29;3675;3;40;541;19;4;92;5087;5;96;210;16;5;193;11917;4;81;69;379;605;25;6;128;8917;4;55;67;474;451;24;7;149;6366;4;175;387;15;8;113;6335;4;153;468;18;9;7;3361;6;11;552;14
09.03.20;17:25:00;1;310;6571;0;2;359;5930;4;394;361;17;3;131;3672;4;174;548;19;4;296;5079;5;308;233;16;5;263;11901;4;118;106;379;605;25;6;184;8906;4;81;90;474;451;24;7;425;6350;4;476;480;18;8;265;6325;4;308;470;18;9;7;3361;4;11;553;14
09.03.20;17:20:00;1;316;6545;0;2;169;5901;4;199;369;17;3;87;3661;4;127;512;19;4;125;5055;5;130;216;16;5;299;11878;4;137;117;379;605;25;6;200;8891;4;96;106;474;452;24;7;179;6315;4;224;464;18;8;156;6303;4;190;468;18;9;22;3360;6;30;552;14
09.03.20;17:15:00;1;313;6519;0;2;321;5886;4;357;398;18;3;156;3654;4;220;534;19;4;254;5044;5;265;229;16;5;506;11853;4;253;208;399;620;25;6;369;8874;4;181;196;565;537;24;7;349;6300;4;377;458;18;8;301;6290;4;336;468;18;9;125;3358;4;154;522;15
09.03.20;17:10:00;1;344;6492;0;2;397;5860;4;434;397;18;3;240;3641;4;281;506;20;4;327;5024;5;341;234;16;5;707;11809;4;353;299;412;644;25;6;523;8841;4;264;277;579;558;24;7;447;6271;4;489;454;18;8;417;6265;4;454;468;18;9;187;3348;4;217;532;15
09.03.20;17:05:00;1;905;6463;0;2;520;5827;4;561;397;18;3;320;3621;4;366;515;20;4;419;4996;5;437;238;16;5;907;11749;4;448;383;414;658;25;6;665;8797;4;337;335;582;552;24;7;539;6234;4;573;468;18;8;524;6231;4;565;465;18;9;264;3333;4;301;522;15
09.03.20;17:00:00;1;1411;6348;0;2;697;5784;4;746;409;18;3;408;3594;4;459;502;19;4;585;4961;5;609;241;16;5;1059;11670;4;541;453;414;668;25;6;795;8738;4;388;401;596;565;24;7;739;6189;4;779;483;18;8;689;6187;4;739;476;18;9;320;3310;4;362;540;15
09.03.20;16:55:00;1;1221;6232;0;2;583;5724;4;626;395;17;3;360;3560;4;409;499;19;4;474;4912;5;494;237;16;5;1018;11581;4;521;428;418;672;25;6;762;8671;4;407;404;592;561;24;7;584;6127;4;625;466;18;8;353;6129;4;379;281;10;9;305;3284;4;345;526;15
09.03.20;16:50:00;1;1164;6115;0;2;655;5676;4;700;405;17;3;405;3530;4;456;516;19;4;534;4872;5;557;241;16;5;1150;11496;4;584;485;419;677;25;6;859;8608;4;441;453;595;571;24;7;664;6079;4;720;482;18;8;667;6081;4;719;481;18;9;357;3258;4;396;526;15
09.03.20;16:45:00;1;2364;5957;0;2;651;5621;4;695;399;17;3;406;3496;4;456;515;19;4;537;4828;5;560;240;16;5;1106;11401;4;563;476;415;676;25;6;848;8535;4;445;446;589;566;24;7;519;6023;4;548;384;14;8;487;6013;0;526;378;14;9;340;3229;4;378;528;15
09.03.20;16:40:00;1;462;5776;0;2;461;5568;4;501;397;17;3;288;3463;4;333;500;19;4;385;4783;5;401;237;16;5;900;11310;4;450;380;415;649;25;6;675;8467;4;344;354;577;565;24;7;455;5969;4;492;479;18;8;466;5974;4;506;469;18;9;250;3201;4;283;509;15
09.03.20;16:35:00;1;950;5722;0;2;333;5529;4;367;386;17;3;202;3438;4;243;497;19;4;271;4751;5;283;231;16;5;687;11236;4;338;288;404;632;25;6;512;8411;4;255;259;567;559;24;7;305;5931;4;343;464;18;8;311;5935;4;355;467;18;9;169;3179;4;198;513;15
09.03.20;16:30:00;1;311;5668;0;2;329;5501;4;365;388;17;3;200;3421;4;239;497;19;4;274;4728;5;285;231;16;5;720;11180;4;356;302;408;621;25;6;530;8369;4;262;272;572;555;24;7;340;5906;4;388;463;18;8;351;5908;4;386;465;18;9;187;3165;4;217;500;15
09.03.20;16:25:00;1;271;5642;0;2;525;5474;4;567;395;16;3;325;3405;4;369;502;18;4;444;4705;5;463;236;16;5;1061;11118;4;528;448;416;665;25;6;797;8323;4;388;397;585;559;24;7;551;5878;4;590;468;18;8;322;5880;4;346;280;10;9;295;3150;4;334;519;15
09.03.20;16:20:00;1;298;5618;0;2;515;5430;4;556;396;16;3;318;3378;4;360;490;18;4;426;4669;5;443;236;16;5;1007;11030;4;517;423;419;653;25;6;752;8257;4;390;389;582;559;24;7;551;5832;4;594;472;18;8;553;5834;4;601;464;18;9;294;3126;4;333;527;15
09.03.20;16:15:00;1;271;5593;0;2;772;5387;4;824;406;17;3;481;3351;4;535;518;18;4;634;4633;5;660;239;16;5;1349;10945;4;696;582;417;684;25;6;1017;8194;4;502;506;598;573;24;7;842;5786;4;900;471;18;8;824;5787;4;883;476;18;9;437;3101;4;481;538;15
09.03.20;16:10:00;1;255;5570;0;2;840;5323;4;893;401;16;3;505;3312;4;558;513;18;4;697;4581;5;725;242;16;5;1417;10829;4;733;603;422;687;25;6;1068;8106;4;533;528;596;571;24;7;953;5717;4;1015;473;18;8;934;5720;4;993;478;18;9;489;3065;4;537;524;15
09.03.20;16:05:00;1;227;5549;0;2;579;5251;4;623;398;16;3;360;3268;4;409;502;18;4;479;4520;5;499;239;16;5;1073;10715;4;546;457;413;666;25;6;821;8019;4;430;433;584;565;24;7;600;5636;4;636;470;18;8;596;5641;4;640;465;18;9;319;3023;4;357;519;15
09.03.20;16:00:00;1;309;5530;0;2;503;5203;4;545;392;16;3;310;3238;4;356;505;18;4;421;4481;5;439;232;16;5;1065;10627;4;539;448;424;668;25;6;791;7952;4;377;380;587;562;24;7;482;5586;4;525;461;18;8;484;5591;4;530;462;18;9;260;2997;4;298;510;15
09.03.20;15:55:00;1;228;5506;0;2;716;5161;4;764;404;16;3;444;3212;4;499;513;18;4;614;4446;5;640;237;16;5;1484;10537;4;763;640;425;687;25;6;1112;7885;4;560;555;599;573;24;7;733;5545;4;792;472;18;8;741;5550;4;791;475;18;9;325;2975;4;356;421;12
09.03.20;15:50:00;1;228;5487;0;2;964;5101;4;1022;408;16;3;606;3175;4;664;529;18;4;836;4395;5;871;246;16;5;1851;10409;4;980;811;423;694;25;6;1404;7789;4;734;711;599;575;24;7;1048;5484;4;1110;480;18;8;1057;5489;4;1116;483;17;9;572;2943;4;618;533;15
09.03.20;15:45:00;1;227;5468;0;2;838;5021;4;892;408;16;3;531;3125;4;585;518;18;4;731;4325;5;761;240;16;5;1580;10254;4;821;683;429;709;25;6;1213;7671;4;613;607;601;574;24;7;923;5397;4;972;479;18;8;924;5401;4;980;478;17;9;504;2895;4;552;532;15
09.03.20;15:40:00;1;227;5449;0;2;578;4951;4;621;396;16;3;359;3081;4;408;505;18;4;495;4264;5;515;238;16;5;1145;10126;4;580;488;409;665;25;6;871;7573;4;454;455;589;567;24;7;630;5321;4;684;470;18;8;641;5324;4;691;473;17;9;349;2854;4;389;525;15
09.03.20;15:35:00;1;315;5429;0;2;545;4903;4;586;402;16;3;334;3050;4;385;508;18;4;467;4223;5;486;239;16;5;1128;10032;4;577;480;415;658;25;6;847;7502;4;431;433;591;570;24;7;584;5267;4;627;480;18;8;576;5270;4;624;479;17;9;308;2824;4;350;527;15
09.03.20;15:30:00;1;371;5403;0;2;621;4857;4;666;405;16;3;386;3022;4;436;516;18;4;530;4184;5;552;240;16;5;1217;9936;4;623;520;413;671;25;6;919;7430;4;478;478;599;576;24;7;477;5219;4;508;317;12;8;736;5223;4;777;477;17;9;390;2798;4;431;526;15
09.03.20;15:25:00;1;391;5372;0;2;693;4805;4;741;404;16;3;434;2990;4;486;507;18;4;600;4139;5;625;245;15;5;1352;9834;4;688;583;426;688;25;6;1021;7352;4;522;519;596;577;24;7;631;5143;0;675;381;14;8;818;5161;4;863;476;17;9;437;2766;4;482;524;15
09.03.20;15:20:00;1;300;5342;0;2;547;4748;4;591;405;16;3;340;2954;4;388;509;18;4;471;4089;5;491;240;15;5;1120;9724;4;572;474;420;673;25;6;850;7269;4;427;430;597;573;24;7;579;5096;4;627;479;18;8;589;5092;4;634;481;17;9;312;2729;4;352;523;15
09.03.20;15:15:00;1;288;5318;0;2;510;4702;4;552;402;16;3;313;2926;4;362;507;18;4;437;4050;5;455;240;15;5;1045;9631;4;537;445;418;677;25;6;779;7198;4;415;421;587;574;24;7;568;5047;4;624;476;18;8;579;5044;4;631;476;17;9;313;2703;4;351;529;15
09.03.20;15:10:00;1;286;5294;0;2;513;4659;4;555;400;16;3;318;2900;4;368;516;18;4;436;4013;5;454;240;15;5;1037;9545;4;533;437;417;660;25;6;783;7134;4;391;399;593;567;24;7;555;5000;4;596;482;18;8;560;4995;4;607;477;17;9;299;2677;4;338;528;15
09.03.20;15:05:00;1;317;5270;0;2;426;4616;4;467;400;16;3;264;2873;4;307;502;18;4;360;3977;5;375;236;15;5;887;9459;4;449;374;414;640;25;6;662;7069;4;330;336;579;562;24;7;454;4954;4;503;466;18;8;466;4948;4;507;473;17;9;250;2652;4;286;522;15
09.03.20;15:00:00;1;231;5247;0;2;449;4581;4;490;401;16;3;278;2851;4;324;506;18;4;378;3947;5;393;236;15;5;919;9385;4;462;386;420;658;25;6;686;7014;4;352;353;592;564;24;7;165;4889;0;176;158;6;8;503;4909;4;537;468;17;9;264;2631;4;302;520;15
09.03.20;14:55:00;1;259;5227;0;2;434;4543;4;475;400;16;3;268;2828;4;312;516;18;4;367;3915;5;383;236;15;5;905;9309;4;449;384;410;660;25;6;678;6957;4;353;359;589;567;24;7;271;4876;4;293;287;10;8;433;4867;4;481;464;17;9;144;2609;4;164;306;9
09.03.20;14:50:00;1;228;5205;0;2;447;4507;4;489;401;16;3;274;2805;4;322;510;18;4;378;3885;5;394;237;16;5;938;9234;4;471;396;424;644;25;6;698;6900;4;351;357;587;567;24;7;159;4830;0;166;162;6;8;67;4831;4;75;80;2;9;123;2585;0;140;258;7
09.03.20;14:45:00;1;264;5185;0;2;582;4470;4;628;408;16;3;361;2782;4;410;500;18;4;496;3853;5;516;240;16;5;1183;9154;4;606;504;424;686;25;6;898;6841;4;452;461;591;574;24;7;615;4800;4;662;477;18;8;511;4790;0;547;386;14;9;261;2569;4;292;418;12
09.03.20;14:40:00;1;265;5163;0;2;642;4421;4;690;406;16;3;400;2753;4;450;510;18;4;551;3812;5;574;240;16;5;1292;9055;4;660;555;419;688;25;6;974;6766;4;461;468;599;573;24;7;307;4748;4;329;237;9;8;642;4748;4;653;485;17;9;157;2541;4;174;266;7
09.03.20;14:35:00;1;258;5141;0;2;502;4368;4;548;398;16;3;315;2719;4;358;497;18;4;428;3766;5;446;236;16;5;997;8947;4;508;426;419;662;25;6;756;6684;4;372;387;588;571;24;7;417;4699;4;452;378;14;8;412;4694;4;452;378;14;9;57;2508;0;64;103;3
09.03.20;14:30:00;1;220;5120;0;2;494;4326;4;533;402;16;3;306;2693;4;355;504;18;4;422;3731;5;439;240;16;5;995;8865;4;510;426;414;669;25;6;761;6623;4;381;392;585;574;24;7;466;4657;4;498;382;14;8;473;4638;0;508;378;14;9;329;2490;4;368;524;15
09.03.20;14:25:00;1;278;5102;0;2;378;4285;4;417;401;16;3;233;2668;4;277;510;18;4;317;3695;5;330;236;16;5;789;8782;4;406;330;411;643;25;6;588;6560;4;300;306;573;563;24;7;336;4605;4;368;374;14;8;338;4603;4;370;381;14;9;241;2462;4;276;524;15
09.03.20;14:20:00;1;219;5079;0;2;535;4253;4;577;402;16;3;332;2648;4;379;505;18;4;466;3669;5;485;240;16;5;1121;8715;4;580;482;414;672;25;6;851;6510;4;426;419;591;571;24;7;425;4569;4;452;290;10;8;478;4552;0;513;288;10;9;368;2442;4;409;529;15
09.03.20;14:15:00;1;220;5060;0;2;434;4211;4;475;402;16;3;267;2622;4;308;502;18;4;363;3632;5;378;239;16;5;923;8625;4;469;392;420;668;25;6;690;6442;4;354;366;586;573;24;7;95;4473;0;107;96;3;8;534;4519;4;578;486;18;9;217;2404;0;249;408;12